Weather History for Bend, OR

Change the Weather History Date:

Sunday, October 14, 2012

  Actual Average (KRDM) Record (KRDM)
Temperature  
Mean Temperature 54 °F 48 °F  
Max Temperature 66 °F 65 °F 85 °F (1991)
Min Temperature 41 °F 32 °F 13 °F (1969)
Degree Days  
Heating Degree Days 12 17  
Month to date heating degree days 208  
Since 1 July heating degree days 607  
Cooling Degree Days 0 0  
Month to date cooling degree days 0  
Year to date cooling degree days 222  
Growing Degree Days 4 (Base 50)    
Moisture  
Dew Point 32 °F    
Average Humidity 43    
Maximum Humidity 70    
Minimum Humidity 23    
Precipitation  
Precipitation 0.00 in 0.02 in 0.33 in (2009)
Month to date precipitation 0.24  
Year to date precipitation 6.38  
Sea Level Pressure  
Sea Level Pressure 30.15 in    
Wind  
Wind Speed 9 mph (SSW)    
Max Wind Speed 20 mph    
Max Gust Speed 22 mph    
Visibility 10 miles    
Events      
T = Trace of Precipitation, MM = Missing Value Source: NWS Daily Summary

Daily Weather History Graph

Daily Weather History Graph

Search for Another Location

Airport:

Trip Planner

Search our weather history database for the weather conditions in past years. The results will help you decide how hot, cold, wet, or windy it might be!

Date:

Astronomy

Oct. 14, 2012 Rise Set
Actual Time 7:18 AM PDT 6:21 PM PDT
Civil Twilight 6:49 AM PDT 6:50 PM PDT
Nautical Twilight 6:16 AM PDT 7:24 PM PDT
Astronomical Twilight 5:42 AM PDT 7:57 PM PDT
Moon 6:23 AM PDT (10/14) 5:44 PM PDT (10/14)
Length of Visible Light 12h 00m
Length of Day
11h 02m
Waning Crescent, 1% of the Moon is Illuminated
Oct 14
Waning Crescent
Oct 15
New
Oct 21
First Quarter
Oct 29
Full
Nov 6
Last Quarter

Hourly Weather History & Observations

Time (PDT) Temp. Windchill Dew Point Humidity Pressure Visibility Wind Dir Wind Speed Gust Speed Precip Events Conditions
12:15 AM 51.8 °F - 35.6 °F 54% 30.25 in 10.0 mi SSE 6.9 mph - N/A   Clear
12:35 AM 50.0 °F - 35.6 °F 58% 30.25 in 10.0 mi South 8.1 mph - N/A   Clear
12:55 AM 48.2 °F - 37.4 °F 66% 30.25 in 10.0 mi SSE 6.9 mph - N/A   Clear
1:15 AM 50.0 °F - 37.4 °F 62% 30.24 in 10.0 mi South 6.9 mph - N/A   Clear
1:35 AM 50.0 °F - 37.4 °F 62% 30.25 in 10.0 mi South 8.1 mph - N/A   Clear
1:55 AM 48.2 °F - 37.4 °F 66% 30.25 in 10.0 mi South 9.2 mph - N/A   Clear
2:15 AM 48.2 °F - 37.4 °F 66% 30.25 in 10.0 mi South 8.1 mph - N/A   Clear
2:35 AM 48.2 °F - 35.6 °F 62% 30.25 in 10.0 mi South 12.7 mph - N/A   Clear
2:55 AM 50.0 °F - 37.4 °F 62% - 10.0 mi SSW 19.6 mph - N/A   Clear
3:15 AM 50.0 °F - 35.6 °F 58% 30.23 in 10.0 mi South 10.4 mph - N/A   Clear
3:35 AM 50.0 °F - 35.6 °F 58% 30.21 in 10.0 mi South 12.7 mph - N/A   Clear
3:55 AM 50.0 °F - 35.6 °F 58% 30.21 in 10.0 mi South 10.4 mph - N/A   Clear
4:15 AM 48.2 °F - 35.6 °F 62% 30.21 in 10.0 mi South 10.4 mph 17.3 mph N/A   Clear
4:35 AM 48.2 °F - 35.6 °F 62% 30.21 in 10.0 mi SSE 9.2 mph - N/A   Clear
4:55 AM 48.2 °F - 35.6 °F 62% 30.21 in 10.0 mi SSE 6.9 mph - N/A   Clear
5:15 AM 46.4 °F 41.9 °F 33.8 °F 62% 30.20 in 10.0 mi SSE 9.2 mph - N/A   Clear
5:35 AM 46.4 °F 43.5 °F 33.8 °F 62% 30.21 in 10.0 mi SSE 5.8 mph - N/A   Clear
5:55 AM 46.4 °F 41.5 °F 32.0 °F 57% 30.21 in 10.0 mi South 10.4 mph - N/A   Clear
6:15 AM 46.4 °F 41.9 °F 32.0 °F 57% 30.21 in 10.0 mi SSE 9.2 mph - N/A   Clear
6:35 AM 44.6 °F 40.7 °F 32.0 °F 61% 30.21 in 10.0 mi SE 6.9 mph - N/A   Clear
6:55 AM 44.6 °F 40.7 °F 32.0 °F 61% 30.21 in 10.0 mi SE 6.9 mph - N/A   Clear
7:15 AM 42.8 °F 38.6 °F 32.0 °F 66% 30.20 in 10.0 mi SE 6.9 mph - N/A   Clear
7:35 AM 41.0 °F - 32.0 °F 70% 30.20 in 10.0 mi Calm Calm - N/A   Clear
7:55 AM 42.8 °F 41.1 °F 32.0 °F 66% 30.20 in 10.0 mi SE 3.5 mph - N/A   Clear
8:15 AM 48.2 °F - 33.8 °F 58% 30.19 in 10.0 mi SSE 4.6 mph - N/A   Clear
8:35 AM 48.2 °F - 33.8 °F 58% 30.19 in 10.0 mi South 5.8 mph - N/A   Clear
8:55 AM 53.6 °F - 35.6 °F 51% 30.20 in 10.0 mi SSW 11.5 mph - N/A   Clear
9:15 AM 53.6 °F - 35.6 °F 51% 30.20 in 10.0 mi SSW 17.3 mph - N/A   Clear
9:35 AM 55.4 °F - 35.6 °F 47% 30.19 in 10.0 mi SSW 10.4 mph - N/A   Clear
9:55 AM 57.2 °F - 35.6 °F 44% 30.19 in 10.0 mi SSW 11.5 mph - N/A   Clear
10:15 AM 59.0 °F - 35.6 °F 42% 30.19 in 10.0 mi SSW 13.8 mph 19.6 mph N/A   Clear
10:35 AM 59.0 °F - 35.6 °F 42% 30.19 in 10.0 mi SW 12.7 mph - N/A   Clear
10:55 AM 60.8 °F - 33.8 °F 36% 30.18 in 10.0 mi SW 15.0 mph 21.9 mph N/A   Clear
11:15 AM 60.8 °F - 33.8 °F 36% 30.17 in 10.0 mi SSW 16.1 mph - N/A   Clear
11:35 AM 62.6 °F - 32.0 °F 32% 30.16 in 10.0 mi SSW 17.3 mph 20.7 mph N/A   Clear
11:55 AM 64.4 °F - 32.0 °F 30% 30.16 in 10.0 mi South 18.4 mph - N/A   Clear
12:15 PM 64.4 °F - 32.0 °F 30% 30.16 in 10.0 mi SW 13.8 mph - N/A   Clear
12:55 PM 64.4 °F - 32.0 °F 30% 30.15 in 10.0 mi SW 11.5 mph 16.1 mph N/A   Clear
1:15 PM 64.4 °F - 32.0 °F 30% 30.14 in 10.0 mi SW 6.9 mph - N/A   Clear
1:35 PM 64.4 °F - 32.0 °F 30% 30.13 in 10.0 mi WSW 6.9 mph - N/A   Clear
1:55 PM 66.2 °F - 32.0 °F 28% 30.13 in 10.0 mi SW 4.6 mph - N/A   Clear
2:15 PM 66.2 °F - 30.2 °F 26% 30.12 in 10.0 mi WSW 12.7 mph 16.1 mph N/A   Clear
2:35 PM 66.2 °F - 32.0 °F 28% 30.12 in 10.0 mi WSW 8.1 mph - N/A   Clear
2:55 PM 66.2 °F - 32.0 °F 28% 30.12 in 10.0 mi West 8.1 mph - N/A   Clear
3:15 PM 66.2 °F - 32.0 °F 28% 30.11 in 10.0 mi WSW 9.2 mph - N/A   Clear
3:35 PM 66.2 °F - 32.0 °F 28% 30.11 in 10.0 mi WSW 11.5 mph 17.3 mph N/A   Clear
3:55 PM 66.2 °F - 28.4 °F 24% 30.10 in 10.0 mi WSW 11.5 mph - N/A   Clear
4:15 PM 66.2 °F - 28.4 °F 24% 30.10 in 10.0 mi West 10.4 mph - N/A   Clear
4:35 PM 66.2 °F - 28.4 °F 24% 30.10 in 10.0 mi WSW 12.7 mph 18.4 mph N/A   Clear
4:55 PM 66.2 °F - 28.4 °F 24% 30.09 in 10.0 mi SW 10.4 mph - N/A   Clear
5:15 PM 66.2 °F - 26.6 °F 23% 30.10 in 10.0 mi West 9.2 mph - N/A   Clear
5:35 PM 64.4 °F - 26.6 °F 24% 30.09 in 10.0 mi WSW 10.4 mph - N/A   Clear
5:55 PM 64.4 °F - 26.6 °F 24% 30.09 in 10.0 mi WSW 10.4 mph - N/A   Clear
6:15 PM 64.4 °F - 26.6 °F 24% 30.09 in 10.0 mi West 8.1 mph - N/A   Clear
6:35 PM 62.6 °F - 28.4 °F 27% 30.09 in 10.0 mi WSW 5.8 mph - N/A   Partly Cloudy
6:55 PM 62.6 °F - 28.4 °F 27% 30.08 in 10.0 mi SW 4.6 mph - N/A   Scattered Clouds
7:15 PM 60.8 °F - 28.4 °F 29% 30.08 in 10.0 mi ESE 3.5 mph - N/A   Mostly Cloudy
7:35 PM 59.0 °F - 28.4 °F 31% 30.08 in 10.0 mi SSE 4.6 mph - N/A   Partly Cloudy
7:55 PM 57.2 °F - 30.2 °F 36% 30.08 in 10.0 mi SE 5.8 mph - N/A   Clear
8:15 PM 59.0 °F - 30.2 °F 34% 30.06 in 10.0 mi SE 6.9 mph - N/A   Clear
8:35 PM 59.0 °F - 28.4 °F 31% 30.06 in 10.0 mi SSE 3.5 mph - N/A   Partly Cloudy
8:55 PM 59.0 °F - 26.6 °F 29% 30.05 in 10.0 mi South 8.1 mph - N/A   Partly Cloudy
9:15 PM 59.0 °F - 26.6 °F 29% 30.05 in 10.0 mi South 11.5 mph - N/A   Partly Cloudy
9:35 PM 59.0 °F - 26.6 °F 29% 30.05 in 10.0 mi SSE 4.6 mph - N/A   Scattered Clouds
9:55 PM 59.0 °F - 28.4 °F 31% 30.05 in 10.0 mi SSW 11.5 mph - N/A   Partly Cloudy
10:15 PM 59.0 °F - 28.4 °F 31% 30.07 in 10.0 mi SW 11.5 mph - N/A   Scattered Clouds
10:55 PM 59.0 °F - 28.4 °F 31% 30.07 in 10.0 mi SW 13.8 mph - N/A   Scattered Clouds
11:15 PM 59.0 °F - 28.4 °F 31% 30.06 in 10.0 mi SW 9.2 mph - N/A   Partly Cloudy
11:35 PM 59.0 °F - 30.2 °F 34% 30.05 in 10.0 mi West 4.6 mph - N/A   Partly Cloudy
11:55 PM 59.0 °F - 32.0 °F 36% 30.04 in 10.0 mi WSW 5.8 mph - N/A   Scattered Clouds